EW7906 Weather Reports


Display with metric or nautical units.
time (UTC)temp
F
wind
direction
speed
MPH
gust
MPH
rain 1hr
in
rain 24hr
in
rain mn
in
humidity
%
barometer
mb
20260505062638 90 185 6.0 15.0 0.00 0.00 0.00 100 1008.3
20260505062147 90 201 7.0 17.0 0.00 0.00 0.00 100 1008.5
20260505061638 90 187 5.0 17.0 0.00 0.00 0.00 100 1008.5
20260505061138 91 144 5.0 12.0 0.00 0.00 0.00 100 1008.5
20260505060638 91 167 4.0 10.0 0.00 0.00 0.00 100 1008.6
20260505060138 91 168 5.0 12.0 0.00 0.00 0.00 100 1008.6
20260505055908 91 165 2.0 12.0 0.00 0.00 0.00 100 1008.6
20260505055405 91 194 4.0 9.0 0.00 0.00 0.00 100 1008.6
20260505054634 90 216 5.0 10.0 0.00 0.00 0.00 100 1008.6
20260505054132 91 192 5.0 10.0 0.00 0.00 0.00 100 1008.5
20260505053631 91 180 3.0 8.0 0.00 0.00 0.00 100 1008.5
20260505053137 91 120 7.0 13.0 0.00 0.00 0.00 100 1008.6
20260505053132 91 126 4.0 12.0 0.00 0.00 0.00 100 1008.6
20260505052131 91 144 4.0 13.0 0.00 0.00 0.00 100 1008.6
20260505051613 91 157 5.0 11.0 0.00 0.00 0.00 100 1008.6
20260505051113 91 157 4.0 11.0 0.00 0.00 0.00 100 1008.6
20260505050612 91 187 4.0 12.0 0.00 0.00 0.00 100 1008.6
20260505050111 91 185 4.0 13.0 0.00 0.00 0.00 100 1008.5
20260505041559 92 154 6.0 11.0 0.00 0.00 0.00 100 1008.5
20260505041101 92 140 4.0 11.0 0.00 0.00 0.00 100 1008.5
20260505040600 92 140 5.0 11.0 0.00 0.00 0.00 100 1008.4
20260505040058 92 151 5.0 9.0 0.00 0.00 0.00 100 1008.6
20260505035053 92 163 6.0 10.0 0.00 0.00 0.00 100 1008.6
20260505034553 93 202 1.0 10.0 0.00 0.00 0.00 100 1008.6
20260505034318 93 127 1.0 12.0 0.00 0.00 0.00 100 1008.6
20260505033546 93 222 5.0 12.0 0.00 0.00 0.00 100 1008.5
20260505033046 93 130 3.0 11.0 0.00 0.00 0.00 100 1008.5
20260505032544 93 172 1.0 9.0 0.00 0.00 0.00 100 1008.5
20260505032314 93 177 4.0 11.0 0.00 0.00 0.00 100 1008.5
20260505031815 93 171 4.0 11.0 0.00 0.00 0.00 100 1008.5
20260505031313 93 84 3.0 7.0 0.00 0.00 0.00 100 1008.4
20260505031148 93 146 2.0 9.0 0.00 0.00 0.00 100 1008.5
20260505030047 93 147 2.0 6.0 0.00 0.00 0.00 100 1008.5
20260505030043 93 129 5.0 9.0 0.00 0.00 0.00 100 1008.5
20260505025043 93 146 3.0 9.0 0.00 0.00 0.00 100 1008.5
20260505024542 94 172 4.0 9.0 0.00 0.00 0.00 100 1008.4
20260505024044 94 142 3.0 8.0 0.00 0.00 0.00 100 1008.4
20260505023544 94 132 3.0 8.0 0.00 0.00 0.00 100 1008.5
20260505023316 94 195 2.0 8.0 0.00 0.00 0.00 100 1008.4
20260505022544 94 203 4.0 8.0 0.00 0.00 0.00 100 1008.4
20260505022044 94 130 2.0 8.0 0.00 0.00 0.00 100 1008.4
20260505021542 94 146 0.0 8.0 0.00 0.00 0.00 100 1008.4
20260505021536 94 115 2.0 5.0 0.00 0.00 0.00 100 1008.4
20260505020517 94 115 0.0 6.0 0.00 0.00 0.00 100 1008.3
20260505015948 94 144 1.0 7.0 0.00 0.00 0.00 100 1008.3
20260505015447 94 156 0.0 7.0 0.00 0.00 0.00 100 1008.3
20260505014947 94 118 0.0 8.0 0.00 0.00 0.00 100 1008.2
20260505014444 94 118 1.0 8.0 0.00 0.00 0.00 100 1008.2
20260505013930 95 136 0.0 9.0 0.00 0.00 0.00 100 1008.2
20260505013429 95 180 1.0 9.0 0.00 0.00 0.00 100 1008.2
20260505012928 95 127 2.0 7.0 0.00 0.00 0.00 100 1008.2
20260505012428 95 157 0.0 7.0 0.00 0.00 0.00 100 1008.2
20260505011928 95 132 2.0 9.0 0.00 0.00 0.00 100 1008.2
20260505011419 95 132 1.0 9.0 0.00 0.00 0.00 100 1008.2
20260505010907 95 177 3.0 9.0 0.00 0.00 0.00 100 1008.1
20260505010408 95 178 0.0 10.0 0.00 0.00 0.00 100 1008.1
20260505005907 95 143 6.0 10.0 0.00 0.00 0.00 100 1008.0
20260505005407 95 133 0.0 10.0 0.00 0.00 0.00 100 1008.0
20260505004912 96 129 1.0 10.0 0.00 0.00 0.00 100 1008.1
20260505004908 96 161 3.0 10.0 0.00 0.00 0.00 100 1008.1
20260505003906 96 144 4.0 10.0 0.00 0.00 0.00 100 1008.0
20260505003407 96 157 7.0 10.0 0.00 0.00 0.00 100 1008.0
20260505002905 96 137 6.0 10.0 0.00 0.00 0.00 100 1008.0
20260505002404 97 181 1.0 10.0 0.00 0.00 0.00 100 1007.9
20260505001846 97 215 3.0 11.0 0.00 0.00 0.00 100 1007.8
20260505001344 97 171 5.0 13.0 0.00 0.00 0.00 100 1007.8
20260505000844 97 181 7.0 13.0 0.00 0.00 0.00 100 1007.7
20260505000344 97 139 4.0 15.0 0.00 0.00 0.00 100 1007.8
20260504235844 97 168 3.0 15.0 0.00 0.00 0.00 100 1007.9
20260504235343 97 220 5.0 14.0 0.00 0.00 0.00 100 1008.0
20260504234843 97 170 3.0 14.0 0.00 0.00 0.00 100 1008.1
20260504234344 97 184 5.0 14.0 0.00 0.00 0.00 100 1008.1
20260504233844 97 164 3.0 14.0 0.00 0.00 0.00 100 1008.3
20260504233345 97 170 6.0 11.0 0.00 0.00 0.00 100 1008.3
20260504232844 97 174 5.0 13.0 0.00 0.00 0.00 100 1008.3
20260504232344 98 151 4.0 13.0 0.00 0.00 0.00 100 1008.3
20260504231844 98 168 8.0 13.0 0.00 0.00 0.00 100 1008.3
20260504231614 98 147 7.0 12.0 0.00 0.00 0.00 100 1008.4
20260504230842 98 164 3.0 15.0 0.00 0.00 0.00 100 1008.3
20260504230343 98 203 7.0 15.0 0.00 0.00 0.00 100 1008.4
20260504225843 98 244 5.0 14.0 0.00 0.00 0.00 100 1008.5
20260504225343 98 225 7.0 14.0 0.00 0.00 0.00 100 1008.5
20260504224842 98 177 7.0 14.0 0.00 0.00 0.00 100 1008.7
20260504224342 98 212 6.0 15.0 0.00 0.00 0.00 100 1008.7
20260504223842 98 149 5.0 15.0 0.00 0.00 0.00 100 1008.8
20260504223343 98 174 7.0 15.0 0.00 0.00 0.00 100 1008.7
20260504222844 98 164 5.0 15.0 0.00 0.00 0.00 100 1008.7
20260504222613 98 147 7.0 11.0 0.00 0.00 0.00 100 1008.6
20260504221843 98 181 5.0 10.0 0.00 0.00 0.00 100 1008.8
20260504221342 98 143 6.0 13.0 0.00 0.00 0.00 100 1008.8
20260504220843 98 174 6.0 14.0 0.00 0.00 0.00 100 1008.8
20260504220343 98 191 8.0 14.0 0.00 0.00 0.00 100 1008.9
20260504215843 98 136 3.0 14.0 0.00 0.00 0.00 100 1009.0
20260504215343 99 219 8.0 14.0 0.00 0.00 0.00 100 1008.9
20260504214843 98 178 5.0 15.0 0.00 0.00 0.00 100 1008.8
20260504214342 98 195 5.0 15.0 0.00 0.00 0.00 100 1008.9
20260504213841 98 140 6.0 13.0 0.00 0.00 0.00 100 1009.0
20260504213342 99 177 4.0 13.0 0.00 0.00 0.00 100 1008.9
20260504213114 99 156 4.0 11.0 0.00 0.00 0.00 100 1009.1
20260504212343 98 161 7.0 11.0 0.00 0.00 0.00 100 1009.3
20260504211841 99 222 5.0 11.0 0.00 0.00 0.00 100 1009.4
20260504211341 99 156 6.0 11.0 0.00 0.00 0.00 100 1009.5
20260504210841 98 127 6.0 11.0 0.00 0.00 0.00 100 1009.4
20260504210339 99 90 5.0 11.0 0.00 0.00 0.00 100 1009.6
20260504210110 99 160 6.0 10.0 0.00 0.00 0.00 100 1009.9
20260504205608 99 142 7.0 10.0 0.00 0.00 0.00 100 1009.9
20260504204839 98 160 4.0 11.0 0.00 0.00 0.00 100 1010.0
20260504204835 99 164 5.0 11.0 0.00 0.00 0.00 100 1010.0
20260504203835 98 195 4.0 13.0 0.00 0.00 0.00 100 1009.9
20260504203335 98 167 2.0 13.0 0.00 0.00 0.00 100 1010.2
20260504203105 98 191 6.0 11.0 0.00 0.00 0.00 100 1010.3
20260504202341 98 216 6.0 12.0 0.00 0.00 0.00 100 1010.5
20260504202335 97 126 6.0 12.0 0.00 0.00 0.00 100 1010.4
20260504201334 98 112 0.0 11.0 0.00 0.00 0.00 100 1010.6
20260504200834 98 161 4.0 9.0 0.00 0.00 0.00 100 1010.7
20260504200334 98 209 1.0 11.0 0.00 0.00 0.00 100 1010.7
20260504195331 97 144 8.0 12.0 0.00 0.00 0.00 100 1011.0
20260504195102 97 172 6.0 12.0 0.00 0.00 0.00 100 1010.9
20260504194328 97 160 7.0 13.0 0.00 0.00 0.00 100 1011.2
20260504193828 97 157 5.0 13.0 0.00 0.00 0.00 100 1011.2
20260504193559 96 150 4.0 11.0 0.00 0.00 0.00 100 1011.1
20260504192827 97 236 5.0 11.0 0.00 0.00 0.00 100 1011.2
20260504192326 96 167 6.0 12.0 0.00 0.00 0.00 100 1011.3
20260504192057 97 133 5.0 12.0 0.00 0.00 0.00 100 1011.3
20260504191326 96 161 5.0 13.0 0.00 0.00 0.00 100 1011.5
20260504190825 97 229 5.0 13.0 0.00 0.00 0.00 100 1011.6
20260504190325 96 185 8.0 13.0 0.00 0.00 0.00 100 1011.7
20260504185826 97 172 7.0 13.0 0.00 0.00 0.00 100 1011.8
20260504185315 96 136 7.0 15.0 0.00 0.00 0.00 100 1011.8
20260504184816 94 143 6.0 15.0 0.00 0.00 0.00 100 1011.7
20260504184316 95 47 6.0 13.0 0.00 0.00 0.00 100 1011.8
20260504183819 95 153 6.0 14.0 0.00 0.00 0.00 100 1011.9
20260504183815 95 167 5.0 11.0 0.00 0.00 0.00 100 1011.8
20260504182815 96 111 6.0 14.0 0.00 0.00 0.00 100 1012.1
20260504182314 96 177 4.0 12.0 0.00 0.00 0.00 100 1012.2
20260504181812 94 137 5.0 12.0 0.00 0.00 0.00 100 1012.4
20260504181312 95 161 5.0 12.0 0.00 0.00 0.00 100 1012.4
20260504180812 95 139 7.0 11.0 0.00 0.00 0.00 100 1012.4
20260504180304 95 205 3.0 12.0 0.00 0.00 0.00 100 1012.4
20260504175804 95 203 4.0 12.0 0.00 0.00 0.00 100 1012.5
20260504175304 94 170 5.0 12.0 0.00 0.00 0.00 100 1012.4
20260504174804 94 182 7.0 12.0 0.00 0.00 0.00 100 1012.8
20260504174534 94 171 7.0 15.0 0.00 0.00 0.00 100 1012.9
20260504173803 94 168 6.0 15.0 0.00 0.00 0.00 100 1013.0
20260504173304 94 185 7.0 11.0 0.00 0.00 0.00 100 1013.2
20260504172807 93 144 6.0 12.0 0.00 0.00 0.00 100 1013.5
20260504172802 94 137 7.0 12.0 0.00 0.00 0.00 100 1013.3
20260504171803 92 168 7.0 18.0 0.00 0.00 0.00 100 1013.5
20260504171533 93 140 5.0 18.0 0.00 0.00 0.00 100 1013.6
20260504170800 93 125 6.0 15.0 0.00 0.00 0.00 100 1013.6
20260504170532 93 205 4.0 12.0 0.00 0.00 0.00 100 1013.6
20260504160300 91 180 6.0 18.0 0.00 0.00 0.00 100 1014.2
20260504150757 91 196 9.0 16.0 0.00 0.00 0.00 100 1014.3
20260504150527 91 250 7.0 16.0 0.00 0.00 0.00 100 1014.4
20260504141256 89 174 6.0 15.0 0.00 0.00 0.00 100 1014.2
20260504140756 89 201 5.0 17.0 0.00 0.00 0.00 100 1014.4
20260504140255 89 163 9.0 17.0 0.00 0.00 0.00 100 1014.4
20260504130747 86 158 0.0 5.0 0.00 0.00 0.00 100 1014.4
20260504130248 86 158 0.0 5.0 0.00 0.00 0.00 100 1014.4
20260504110319 85 184 0.0 0.0 0.00 0.00 0.00 100 1013.9
20260504100614 86 184 0.0 0.0 0.00 0.00 0.00 100 1014.0
20260504081743 87 156 1.0 7.0 0.00 0.00 0.00 100 1014.3
20260504081242 87 126 0.0 7.0 0.00 0.00 0.00 100 1014.3
20260504080742 87 165 3.0 5.0 0.00 0.00 0.00 100 1014.5
20260504080515 87 94 0.0 6.0 0.00 0.00 0.00 100 1014.5